This is the latest recevied weather packets stored in our database for station/object KD4KKF. If no packets are shown the sender has not sent any weather packets the latest 10 day(s).
| Time | Temp. | Humidity | Pressure | Rain* | Wind** | Luminosity | Snow |
|---|---|---|---|---|---|---|---|
| 1778003803 | 23.33° C | 63% | 1012.5 hPa | 0 mm | - | 386 W/m² | - |
| 1778003499 | 23.89° C | 64% | 1012.6 hPa | 0 mm | - | 444 W/m² | - |
| 1778003196 | 23.89° C | 64% | 1012.9 hPa | 0 mm | - | 428 W/m² | - |
| 1778002892 | 23.33° C | 65% | 1012.7 hPa | 0 mm | - | 531 W/m² | - |
| 1778002589 | 23.89° C | 65% | 1012.7 hPa | 0 mm | - | 385 W/m² | - |
| 1778002286 | 23.89° C | 63% | 1012.7 hPa | 0 mm | - | 803 W/m² | - |
| 1778001983 | 23.33° C | 63% | 1012.7 hPa | 0 mm | - | 688 W/m² | - |
| 1778001681 | 22.78° C | 66% | 1013 hPa | 0 mm | - | 875 W/m² | - |
| 1778001375 | 23.89° C | 63% | 1012.9 hPa | 0 mm | - | 531 W/m² | - |
| 1778001072 | 23.33° C | 64% | 1013.1 hPa | 0 mm | - | 576 W/m² | - |
| 1778000769 | 23.89° C | 64% | 1012.8 hPa | 0 mm | - | 717 W/m² | - |
| 1778000465 | 23.33° C | 63% | 1013 hPa | 0 mm | - | 711 W/m² | - |
| 1778000160 | 23.33° C | 64% | 1013 hPa | 0 mm | - | 552 W/m² | - |
| 1777999856 | 22.78° C | 65% | 1012.8 hPa | 0 mm | - | 532 W/m² | - |
| 1777999552 | 22.78° C | 65% | 1013 hPa | 0 mm | - | 547 W/m² | - |
| 1777999250 | 22.78° C | 66% | 1012.9 hPa | 0 mm | - | 442 W/m² | - |
| 1777998943 | 22.78° C | 64% | 1012.9 hPa | 0 mm | - | 414 W/m² | - |
| 1777998639 | 23.33° C | 62% | 1013.1 hPa | 0 mm | - | 416 W/m² | - |
| 1777998332 | 23.33° C | 65% | 1013.4 hPa | 0 mm | - | 625 W/m² | - |
| 1777998029 | 23.33° C | 61% | 1013.1 hPa | 0 mm | - | 441 W/m² | - |
| 1777997726 | 23.33° C | 63% | 1012.9 hPa | 0 mm | - | 691 W/m² | - |
| 1777997424 | 23.33° C | 64% | 1013 hPa | 0 mm | - | 687 W/m² | - |
| 1777997121 | 23.33° C | 62% | 1013.1 hPa | 0 mm | - | 816 W/m² | - |
| 1777996818 | 22.78° C | 64% | 1012.9 hPa | 0 mm | - | 840 W/m² | - |
| 1777996514 | 23.33° C | 62% | 1012.9 hPa | 0 mm | - | 799 W/m² | - |
* Rain latest hour (hover to see other rain measurements)
** Current wind speed in m/s (hover to see current wind gust speed)